sat.trackr.live / text

‹ back to catalog

STARLINK-5179

NORAD 54102 · 2022-136BD

PAYLOAD ACTIVE UNKNOWN

§ Identity

Operator
Country
US
Launch date
2022-10-20
Launch site
AFETR
Launch vehicle
Mass (kg)
RCS (m²)

Purposes: comms

External: N2YO · Heavens-Above · Gunter

§ Orbital elements

Epoch: 2026-09-20T22:00:03.000096Z

Period
93.98 min
Inclination
53.1604°
Eccentricity
0.0001453
Mean motion
15.32319566 rev/d
Perigee alt
467.9 km
Apogee alt
469.9 km
Semi-major
6,847.0 km
B*
6.3291e-4
RAAN
175.3936°
Arg perigee
107.5479°
Mean anomaly
130.8472°
Rev number
575

§ Raw data

STARLINK-51791 54102U 22136BD  26263.91670139  .00019710  00000+0  63291-3 0  99922 54102  53.1604 175.3936 0001453 107.5479 130.8472 15.32319566  5756

JSON: /api/v1/satellites/54102 · /tle

For live sub-satellite position, see the globe view (requires WebGL).

§ Visibility from observer

Set your observer location to see the next 7 days of passes ≥ 10°. The values pass through the URL so the page stays shareable.

No JS? Fill the form by hand. The geolocation button needs JavaScript.